Serenade Of The Seas — C6FV8 — position and weather

sailwx.info

Track history (hours):
 
Tides and Currents Weather Stations Pressure Air Temp Water Temp Dewpoint Dewpoint Depression Visibility Wind Speed Wind Dir Waves Ship Positions

Serenade Of The Seas

Operator: Royal Caribbean Cruises Ltd

Last reported at 2017-Oct-20 02:04 UTC. Time now 2017-Oct-20 03:38 UTC.
Position N 42°31' W 068°58'.

Length 294 m; draft 8.4 m.

Type: Ship. MMSI: 311492000.

Date/timePositionNaut miles runAvg speedWind from/ knotsBaromVisibWave heightAir tempDewpointWater temp
2017-Oct-20 02:04N 42°31' W 068°58'311.1
2017-Oct-20 01:49N 42°31' W 068°55'311.0
2017-Oct-20 01:30N 42°32' W 068°50'510.8
2017-Oct-20 01:00N 42°34' W 068°43'5 9.9
2017-Oct-20 00:30N 42°35' W 068°37'510.3
2017-Oct-20 00:00N 42°36' W 068°30'510.0
2017-Oct-19 23:30N 42°37' W 068°23'8310.6
2017-Oct-19 15:44N 42°57' W 066°34'310.8
2017-Oct-19 15:29N 42°58' W 066°30'510.5
2017-Oct-19 14:59N 42°59' W 066°23'510.5
2017-Oct-19 14:30N 43°00' W 066°17'510.3
2017-Oct-19 14:00N 43°02' W 066°10'510.9
2017-Oct-19 13:30N 43°03' W 066°03'  
2017-Oct-16 00:30N 42°44' W 070°01'612.6
2017-Oct-16 00:00N 42°40' W 070°07'612.6
2017-Oct-15 23:30N 42°37' W 070°14'612.9
2017-Oct-15 23:00N 42°33' W 070°22'613.0
2017-Oct-15 22:30N 42°30' W 070°29'713.2
2017-Oct-15 22:00N 42°26' W 070°37'613.1
2017-Oct-15 21:30N 42°25' W 070°45'612.6
2017-Oct-15 21:00N 42°23' W 070°53'510.7
2017-Oct-15 20:30N 42°20' W 070°60'2 3.7
2017-Oct-15 20:00N 42°21' W 071°02'0 0.0
2017-Oct-15 19:29N 42°21' W 071°02'0 0.0
2017-Oct-15 18:59N 42°21' W 071°02'0 0.0
2017-Oct-15 18:29N 42°21' W 071°02'0 0.0
2017-Oct-15 17:59N 42°21' W 071°02'0 0.0
2017-Oct-15 17:29N 42°21' W 071°02'0 0.0
2017-Oct-15 16:59N 42°21' W 071°02'0 0.0
2017-Oct-15 16:29N 42°21' W 071°02'0 0.0
2017-Oct-15 15:59N 42°21' W 071°02'0 0.0
2017-Oct-15 15:29N 42°21' W 071°02'0 0.0
2017-Oct-15 14:59N 42°21' W 071°02'0 0.0
2017-Oct-15 13:59N 42°21' W 071°02'0 0.0
2017-Oct-15 13:29N 42°21' W 071°02'0 0.0
2017-Oct-15 12:59N 42°21' W 071°02'0 0.0
2017-Oct-15 12:29N 42°21' W 071°02'0 0.0
2017-Oct-15 11:59N 42°21' W 071°02'0 0.0
2017-Oct-15 11:29N 42°21' W 071°02'0 0.0
2017-Oct-15 10:59N 42°21' W 071°02'1 2.3
2017-Oct-15 10:30N 42°21' W 071°01'4 7.7
2017-Oct-15 10:00N 42°22' W 070°56'510.0
2017-Oct-15 09:30N 42°24' W 070°50'4 8.6
2017-Oct-15 09:00N 42°23' W 070°44'510.6
2017-Oct-15 08:30N 42°22' W 070°37'510.4
2017-Oct-15 08:00N 42°21' W 070°30'5 9.6
2017-Oct-15 07:30N 42°21' W 070°23'5 9.2
2017-Oct-15 07:00N 42°21' W 070°17'510.2
2017-Oct-15 06:30N 42°20' W 070°10'510.3
2017-Oct-15 06:00N 42°20' W 070°03'710.4
2017-Oct-15 05:19N 42°21' W 069°54'1010.1
2017-Oct-15 04:20N 42°23' W 069°41'  
Track history (hours):
 
Tides and Currents Weather Stations Pressure Air Temp Water Temp Dewpoint Dewpoint Depression Visibility Wind Speed Wind Dir Waves Ship Positions

Serenade Of The Seas

Operator: Royal Caribbean Cruises Ltd

Last reported at 2017-Oct-20 02:04 UTC. Time now 2017-Oct-20 03:38 UTC.
Position N 42°31' W 068°58'.

Length 294 m; draft 8.4 m.

Type: Ship. MMSI: 311492000.

Date/timePositionNaut miles runAvg speedWind from/ knotsBaromVisibWave heightAir tempDewpointWater temp
2017-Oct-20 02:04N 42°31' W 068°58'311.1
2017-Oct-20 01:49N 42°31' W 068°55'311.0
2017-Oct-20 01:30N 42°32' W 068°50'510.8
2017-Oct-20 01:00N 42°34' W 068°43'5 9.9
2017-Oct-20 00:30N 42°35' W 068°37'510.3
2017-Oct-20 00:00N 42°36' W 068°30'510.0
2017-Oct-19 23:30N 42°37' W 068°23'8310.6
2017-Oct-19 15:44N 42°57' W 066°34'310.8
2017-Oct-19 15:29N 42°58' W 066°30'510.5
2017-Oct-19 14:59N 42°59' W 066°23'510.5
2017-Oct-19 14:30N 43°00' W 066°17'510.3
2017-Oct-19 14:00N 43°02' W 066°10'510.9
2017-Oct-19 13:30N 43°03' W 066°03'  
2017-Oct-16 00:30N 42°44' W 070°01'612.6
2017-Oct-16 00:00N 42°40' W 070°07'612.6
2017-Oct-15 23:30N 42°37' W 070°14'612.9
2017-Oct-15 23:00N 42°33' W 070°22'613.0
2017-Oct-15 22:30N 42°30' W 070°29'713.2
2017-Oct-15 22:00N 42°26' W 070°37'613.1
2017-Oct-15 21:30N 42°25' W 070°45'612.6
2017-Oct-15 21:00N 42°23' W 070°53'510.7
2017-Oct-15 20:30N 42°20' W 070°60'2 3.7
2017-Oct-15 20:00N 42°21' W 071°02'0 0.0
2017-Oct-15 19:29N 42°21' W 071°02'0 0.0
2017-Oct-15 18:59N 42°21' W 071°02'0 0.0
2017-Oct-15 18:29N 42°21' W 071°02'0 0.0
2017-Oct-15 17:59N 42°21' W 071°02'0 0.0
2017-Oct-15 17:29N 42°21' W 071°02'0 0.0
2017-Oct-15 16:59N 42°21' W 071°02'0 0.0
2017-Oct-15 16:29N 42°21' W 071°02'0 0.0
2017-Oct-15 15:59N 42°21' W 071°02'0 0.0
2017-Oct-15 15:29N 42°21' W 071°02'0 0.0
2017-Oct-15 14:59N 42°21' W 071°02'0 0.0
2017-Oct-15 13:59N 42°21' W 071°02'0 0.0
2017-Oct-15 13:29N 42°21' W 071°02'0 0.0
2017-Oct-15 12:59N 42°21' W 071°02'0 0.0
2017-Oct-15 12:29N 42°21' W 071°02'0 0.0
2017-Oct-15 11:59N 42°21' W 071°02'0 0.0
2017-Oct-15 11:29N 42°21' W 071°02'0 0.0
2017-Oct-15 10:59N 42°21' W 071°02'1 2.3
2017-Oct-15 10:30N 42°21' W 071°01'4 7.7
2017-Oct-15 10:00N 42°22' W 070°56'510.0
2017-Oct-15 09:30N 42°24' W 070°50'4 8.6
2017-Oct-15 09:00N 42°23' W 070°44'510.6
2017-Oct-15 08:30N 42°22' W 070°37'510.4
2017-Oct-15 08:00N 42°21' W 070°30'5 9.6
2017-Oct-15 07:30N 42°21' W 070°23'5 9.2
2017-Oct-15 07:00N 42°21' W 070°17'510.2
2017-Oct-15 06:30N 42°20' W 070°10'510.3
2017-Oct-15 06:00N 42°20' W 070°03'710.4
2017-Oct-15 05:19N 42°21' W 069°54'1010.1
2017-Oct-15 04:20N 42°23' W 069°41'  

Dump ship's entire track history